Location: Chandolas
(44.4033°N, 4.2533°E)
Time: 04:19:47
(UTC+00:00)

Cosmos 1833 Rocket - Pass Details

Date: 15 November 2019
Orbit: 832 x 840 km, 71.0° (Epoch: 09 December)

Event Time Altitude Azimuth Distance (km) Brightness Sun altitude
Exits shadow 05:12:16 22° 301° (WNW) 1,771 3.8 -15.4°
Maximum altitude 05:12:58 22° 312° (NW) 1,750 3.9 -15.3°
Drops below altitude 10° 05:17:17 10° 2° (N) 2,454 5.0 -14.5°
Sets 05:20:19 0° 17° (NNE) 3,393 5.9 -14.0°
